SCP
0 0 0 0 0 0 0 0 0 0 0 0 0 0 0 0 0 0 0 0 0 0 0 0 0 0 1 0 -0 -0 -0 0 1 2 1 2 2 3 2 1 1 0 0 0
0 0 0 0 0 0 0 0 0 0 0 0 0 0 0 0 0 0 0 0 0 0 0 0 0 0 0 0 0 -1 -1 0 1 2 2 2 1 2 1 1 0 0 0 0
0 0 0 0 0 0 0 -0 0 0 0 0 0 0 0 0 0 0 0 0 0 0 -0 0 0 -0 0 0 0 -0 -1 1 0 1 2 1 1 1 1 0 0 0 0 0
0 0 0 0 0 0 0 0 0 0 0 0 0 0 0 0 0 0 0 0 0 0 0 0 0 -0 -0 0 0 0 0 0 0 0 1 2 1 1 0 0 0 0 0 0
0 0 0 0 0 0 0 0 0 0 0 0 0 0 0 0 0 0 0 0 0 0 0 0 0 0 0 0 0 1 1 0 1 1 1 1 1 0 0 0 0 0 0 0
0 0 0 0 0 0 0 0 0 0 0 0 0 0 0 0 0 0 0 0 0 0 0 0 0 -0 0 0 0 1 1 1 2 1 1 0 0 0 0 0 0 0 0 0
0 0 0 0 0 0 0 0 0 0 0 0 0 0 0 0 0 0 0 0 0 -0 0 0 0 0 0 0 0 0 0 1 2 1 1 0 0 0 0 0 0 0 0 0
0 0 0 0 0 0 0 0 0 -0 0 0 0 0 0 0 -0 0 0 0 0 -0 0 0 0 0 0 0 -0 0 0 0 1 1 0 0 0 0 0 0 0 0 0 0
0 0 0 0 0 0 0 0 0 0 0 0 0 0 -0 -0 -0 0 0 0 -0 -0 0 0 0 -0 -0 -0 0 0 0 1 1 0 0 0 0 0 0 0 0 0 0 0
0 0 0 0 0 0 0 0 -0 -0 -0 0 0 0 0 -0 -0 0 -0 -0 -0 0 -0 0 0 -0 -0 -0 0 0 1 0 0 0 0 0 0 0 0 0 0 0 0 0
0 0 0 0 0 0 0 0 0 0 0 0 0 0 -0 -0 -0 -0 0 0 0 0 -0 0 0 0 -0 0 0 0 1 0 0 0 0 0 0 0 0 0 0 0 0 0
-0 0 -0 -0 -0 -0 -0 -0 -0 -0 -0 -0 0 -0 -0 -0 -0 -0 0 0 0 0 0 0 0 0 0 0 0 0 0 0 0 0 0 0 0 0 0 0 0 0 0 0
-0 -0 -0 -0 -0 -0 -0 0 -0 -0 -0 -0 -0 -0 -0 -0 0 -0 -0 -0 0 0 0 0 0 0 0 0 0 0 0 0 0 0 0 0 0 0 0 0 0 0 0 0
-0 -0 -0 -0 -0 -0 -0 0 0 0 -0 -0 -0 -0 -0 0 -0 -0 -0 -0 -0 -0 0 0 0 0 0 0 0 0 0 0 0 0 0 0 0 0 0 0 0 0 0 0
0 0 -0 -0 0 0 0 0 -0 -0 -0 -0 -0 -0 0 -0 -0 -0 -0 -0 -0 -0 -0 -0 0 0 0 0 0 0 0 0 0 0 0 0 0 0 0 0 0 0 0 0
-0 0 0 0 0 -0 0 -0 -0 -0 -0 -0 0 0 -0 -0 -0 -0 -0 -0 -0 -0 0 0 0 0 0 0 0 0 0 0 0 0 0 0 0 0 0 0 0 0 0 0
0 -0 -0 0 0 -0 -0 -0 -0 -0 -0 0 0 -0 -0 -0 -0 0 0 -0 -0 0 0 0 0 0 0 0 0 0 0 0 0 0 0 0 0 0 0 0 0 0 0 0
0 0 0 0 -0 -0 -0 -0 -0 -0 -0 -0 -0 -0 -0 0 -0 0 -0 -0 -0 -0 -0 0 0 0 0 0 0 0 0 0 0 0 0 0 0 0 0 0 0 0 0 0
-0 -0 0 0 -0 -0 -0 -0 -0 0 -0 -0 -0 -0 -0 0 0 0 0 -0 -0 -0 -0 -0 -0 0 0 0 0 0 0 0 0 0 0 0 0 0 0 0 0 0 0 0
-0 0 0 0 -0 0 -0 -0 -0 -0 -0 -0 -0 -0 -0 -0 -0 -0 -0 -0 -0 0 -0 -0 -0 0 0 0 0 0 0 0 0 0 0 0 0 0 0 0 0 0 0 0
-0 0 0 -0 -0 0 -0 -0 0 0 -0 -0 -0 -0 -0 -0 -0 -0 -0 -0 -0 -0 -0 -0 0 0 0 0 0 0 0 0 0 0 0 0 0 0 0 0 0 0 0 0
-0 0 0 -0 -0 0 -0 -0 0 -0 -0 -0 -0 -0 -0 -0 -0 -0 -0 -0 0 -0 0 0 0 -0 0 0 0 0 0 0 0 0 0 0 0 0 0 0 0 0 0 0
-0 0 0 -0 -0 -0 -0 -0 0 0 0 -0 -0 -0 -0 0 0 -0 0 -0 0 -0 -0 -0 -0 -0 -0 0 0 0 0 0 0 0 0 0 0 0 0 0 0 0 0 0
0 -0 0 0 0 0 0 0 0 -0 0 -0 -0 -0 0 0 0 0 -0 0 -0 -0 -0 -0 -0 -0 -0 0 0 0 0 0 0 0 0 0 0 0 0 0 0 0 0 0
0 -0 -0 -0 -0 -0 -0 -0 -0 0 -0 -0 0 -0 0 0 0 0 -0 -0 -0 -0 -0 -0 -0 -0 0 -0 0 0 0 0 0 0 0 0 0 0 0 0 0 0 0 0
-0 -0 -0 -0 -0 -0 -0 -0 -0 -0 -0 -0 -0 -0 -0 -0 -0 -0 -0 -0 -0 -0 -0 -0 -0 -0 -0 -0 -0 0 0 0 0 0 0 0 0 0 0 0 0 0 0 0
-0 0 -0 -0 -0 -0 -0 -0 -0 -0 -0 -0 -0 -0 -0 0 -0 -0 -0 -0 -0 -0 -0 -0 -0 -0 -0 -0 -0 -0 -0 -0 0 0 0 0 0 0 0 0 0 0 0 0
Wind_Speed_500mb
55 54 53 55 57 54 49 49 46 57 57 50 37 32 24 29 32 36 38 32 39 45 45 48 51 49 46 45 60 68 59 54 57 73 72 72 86 74 70 66 54 60 65 65
54 47 51 56 59 58 62 62 57 53 51 34 31 34 33 19 30 35 38 37 45 39 47 41 48 53 49 46 61 54 59 48 78 75 81 78 68 80 81 75 72 68 62 67
41 29 41 40 45 50 49 46 33 37 43 38 37 28 27 33 34 41 40 41 34 36 37 38 45 58 57 54 59 61 42 65 60 68 78 81 82 82 80 82 86 74 75 73
33 17 38 35 43 38 41 48 46 35 39 34 29 35 45 52 38 33 38 43 45 43 45 43 49 67 69 58 60 61 43 40 69 63 80 78 85 89 80 101 95 100 87 81
12 20 42 50 49 51 47 37 38 42 27 28 42 56 42 45 22 31 42 44 52 52 55 62 68 64 66 65 61 59 52 38 49 51 69 65 86 91 95 96 110 98 93 86
9 9 16 10 17 32 24 35 22 17 26 34 40 28 25 49 50 58 67 51 37 51 60 59 59 62 67 75 67 60 54 44 53 57 72 81 73 73 105 105 113 104 99 94
23 19 27 21 25 30 12 10 27 49 71 72 34 35 59 53 56 64 55 44 43 53 59 58 58 59 70 73 76 68 58 46 55 53 78 83 90 74 103 103 108 104 95 86
14 11 19 10 28 8 25 47 43 45 59 69 56 60 74 60 67 60 52 50 51 56 54 56 58 61 68 80 76 66 56 48 57 58 77 67 93 103 108 103 103 100 91 82
27 26 37 66 52 58 53 61 66 53 61 65 65 58 62 66 64 59 54 58 69 60 64 58 54 69 72 75 66 68 57 63 73 76 76 57 95 104 104 101 104 106 96 86
39 43 40 61 63 55 66 66 68 63 55 65 66 62 63 65 67 59 68 67 59 58 60 61 48 63 65 65 58 55 56 69 84 76 68 64 81 98 100 104 106 106 94 86
44 45 58 59 69 66 65 70 67 55 51 45 47 52 63 65 63 77 74 75 68 68 64 55 52 56 64 54 53 50 62 71 80 72 76 90 97 103 106 110 110 103 92 87
33 60 55 63 69 80 71 55 57 58 57 55 47 56 57 67 81 79 79 79 78 67 58 51 47 45 42 45 51 64 78 79 80 77 51 93 95 92 87 97 92 80 78 83
50 61 63 65 56 59 59 65 64 46 48 57 57 51 62 75 77 78 80 79 66 55 50 46 42 48 45 42 53 70 78 81 77 53 78 95 99 100 94 82 85 81 76 66
61 61 46 44 70 79 55 46 44 51 48 49 58 67 63 65 77 76 71 61 51 46 44 39 43 44 34 41 64 70 72 82 86 72 82 100 102 101 101 99 94 77 62 61
39 44 54 55 43 35 39 45 50 52 58 64 63 58 55 68 66 60 52 43 38 40 42 42 36 40 40 45 64 72 79 86 86 87 96 103 106 102 97 96 92 89 77 66
47 47 33 37 39 41 45 49 56 61 62 60 59 60 54 47 43 43 37 33 27 25 26 23 24 30 31 44 72 73 73 79 81 94 100 103 101 96 98 104 101 89 81 78
32 35 35 36 38 44 48 49 49 50 56 53 52 44 37 35 32 26 22 17 9 5 9 10 21 27 36 51 59 67 72 83 82 81 90 93 94 97 103 105 102 96 92 91
18 21 23 26 35 40 47 48 46 46 46 42 35 28 26 23 16 29 26 25 28 23 22 11 14 24 54 50 54 54 62 69 74 78 82 88 94 95 98 103 100 101 98 92
15 18 22 26 29 34 43 51 49 43 40 33 30 30 24 21 25 33 39 35 37 38 34 25 12 28 51 57 51 48 54 64 66 67 73 80 86 91 93 100 99 101 93 85
15 18 19 22 28 35 41 48 57 55 50 41 39 40 47 49 47 52 57 57 49 41 30 23 16 24 30 37 49 59 60 61 65 66 72 81 89 86 88 93 98 88 86 83
15 18 18 22 29 35 39 40 49 58 60 54 51 51 51 56 63 61 65 66 58 48 38 30 24 21 23 27 39 52 59 70 71 69 77 82 86 83 85 94 92 87 84 81
15 21 19 21 26 33 41 45 42 47 54 60 60 62 63 62 60 61 62 61 53 48 52 45 36 22 14 12 23 40 53 62 68 76 84 90 92 95 85 83 83 85 84 76
10 14 16 25 27 32 39 45 46 46 48 54 61 63 66 64 61 59 63 60 57 57 51 48 40 28 18 12 25 38 44 48 61 74 77 77 86 86 79 74 72 75 77 69
12 7 4 3 14 22 31 36 42 45 47 48 48 54 61 64 62 62 55 46 52 57 60 49 42 34 21 31 38 41 41 48 55 66 70 79 76 73 71 65 59 74 72 76
16 19 20 15 17 18 19 26 36 40 42 46 48 46 48 54 61 60 55 50 49 53 55 54 56 41 41 42 38 41 47 48 56 64 64 67 68 61 58 59 69 65 71 67
18 20 21 23 24 25 24 24 30 32 35 42 48 44 45 46 46 47 52 58 58 52 55 56 54 59 53 46 45 46 43 41 50 53 56 60 56 52 56 61 61 69 68 69
17 15 21 23 24 26 27 32 33 32 31 33 36 41 48 47 46 49 46 45 52 57 57 54 53 52 51 49 45 40 36 36 33 34 37 42 45 49 53 59 62 64 64 60
Wind_Direction_500mb
265 269 270 277 286 287 290 287 279 285 279 285 302 312 323 327 322 302 306 294 314 300 295 294 299 295 297 277 282 292 296 221 205 210 206 208 206 198 197 197 198 205 206 199
268 274 277 279 281 286 277 272 270 275 278 294 323 329 293 327 329 327 313 302 293 302 305 285 289 288 301 296 278 296 316 283 219 206 206 209 202 206 205 207 206 214 207 197
272 280 290 279 274 274 276 289 292 298 296 316 308 303 335 322 312 303 309 306 290 293 286 288 280 279 275 287 286 291 304 233 219 213 211 210 205 206 210 204 204 205 199 192
269 292 263 270 265 280 295 285 286 312 315 304 329 333 322 314 325 341 324 309 298 295 290 285 284 281 278 268 288 283 286 222 234 219 210 213 209 209 206 208 207 207 197 194
239 237 270 279 277 281 283 305 308 300 311 339 330 317 306 298 351 312 304 303 296 291 290 292 286 273 274 268 278 274 277 249 234 228 225 206 202 204 197 195 201 202 194 191
188 221 260 306 298 319 333 279 301 309 309 310 294 292 297 322 320 319 308 297 291 293 291 282 278 268 273 269 269 268 265 241 232 222 216 203 198 204 202 207 205 193 182 189
254 258 268 310 356 3 279 313 333 318 308 298 306 307 305 308 315 306 299 299 301 297 292 281 278 268 267 265 269 266 253 244 224 216 215 213 191 193 187 189 186 182 183 187
261 269 269 36 305 283 261 273 294 290 304 309 309 305 307 309 303 300 310 305 300 297 288 280 272 269 267 266 261 263 257 234 221 206 205 197 191 187 184 183 178 176 183 176
281 287 312 309 301 312 319 315 316 328 318 304 295 295 296 302 302 311 305 302 295 287 288 287 269 254 264 258 265 260 252 219 215 198 201 189 193 177 175 177 173 178 180 172
314 303 302 306 309 326 324 320 305 313 318 301 296 307 303 305 304 302 299 298 292 287 284 283 265 255 259 262 264 256 214 205 193 197 194 201 204 189 181 175 178 181 181 176
290 297 312 315 317 318 312 319 312 317 311 298 310 306 302 300 299 303 300 298 295 286 284 279 270 258 243 249 255 220 202 196 187 183 188 189 181 181 182 183 191 185 183 180
297 308 304 301 309 310 309 310 303 318 313 305 303 303 302 297 304 304 301 300 298 291 285 280 271 259 251 263 229 201 182 185 182 179 189 184 183 177 178 181 188 186 176 171
305 308 307 307 312 325 319 312 306 311 309 312 311 306 304 308 309 303 298 298 295 291 294 284 262 254 271 223 215 205 190 192 186 179 187 181 179 177 170 172 178 179 171 170
298 306 306 306 310 310 311 304 314 312 314 312 309 311 316 310 308 306 304 302 295 289 283 282 261 251 237 222 202 199 198 194 189 182 193 185 180 177 172 169 166 165 165 165
316 316 302 308 318 329 330 326 323 320 321 320 320 317 310 306 308 308 321 313 292 281 275 262 258 234 224 213 202 197 192 187 190 186 185 182 180 176 174 168 167 166 166 167
313 317 338 340 339 333 331 331 329 327 326 322 317 316 317 318 315 314 310 306 291 280 267 260 215 214 219 208 196 194 195 192 190 184 181 178 179 179 177 176 177 171 171 169
324 340 346 337 336 338 337 334 333 331 323 323 322 328 327 335 330 333 336 8 16 298 236 249 242 225 225 204 201 186 188 192 192 187 181 182 178 181 185 187 180 177 172 172
353 348 348 343 343 347 353 353 350 345 341 343 343 349 352 4 359 16 40 52 75 89 88 109 175 203 195 196 196 193 187 185 189 188 185 181 180 179 182 180 178 176 170 167
12 359 2 8 14 17 17 16 15 13 15 19 30 34 34 39 51 56 57 64 53 60 56 67 129 195 183 193 187 195 188 189 188 187 184 180 177 180 179 177 178 177 169 168
24 14 21 25 19 17 19 24 31 33 35 45 58 61 59 57 54 59 61 55 46 40 45 54 91 160 179 197 197 191 187 184 186 186 183 180 176 177 173 178 177 175 173 173
35 17 17 15 20 24 26 26 32 36 41 49 54 53 55 58 59 55 54 52 47 46 50 62 74 101 144 177 182 182 183 180 181 182 181 178 175 171 175 178 176 175 172 171
25 18 20 22 29 34 34 33 37 41 45 46 51 57 61 64 63 60 56 52 45 46 47 48 53 61 81 128 163 169 172 176 177 174 172 171 167 166 169 171 173 172 175 172
57 18 20 28 27 27 25 30 34 38 42 46 48 52 57 56 60 62 58 54 50 49 51 48 48 53 69 118 159 165 167 168 165 167 164 158 165 168 164 168 174 179 170 168
24 356 332 360 48 21 19 20 29 36 46 50 49 50 55 59 60 63 64 64 62 59 58 56 56 66 98 120 133 145 154 156 159 158 159 155 153 154 160 169 168 164 167 166
30 32 36 36 33 25 34 28 29 31 36 45 46 50 55 58 58 58 61 66 68 66 64 67 68 79 89 104 117 117 125 132 141 145 142 147 153 159 159 156 155 160 159 160
46 50 49 49 45 41 40 36 39 33 29 38 39 42 50 56 62 64 63 64 66 69 69 66 77 77 78 90 96 107 103 106 127 134 140 146 150 147 146 154 157 155 158 160
45 35 56 56 51 48 52 54 53 50 45 44 45 35 39 54 60 61 63 65 66 67 68 71 75 80 80 81 83 84 91 114 122 143 146 149 157 159 161 165 166 168 165 166
Wind_Speed_850mb
55 54 53 55 57 54 49 49 46 57 57 50 37 32 24 29 32 36 38 32 39 45 45 48 51 49 46 45 60 68 59 54 57 73 72 72 86 74 70 66 54 60 65 65
54 47 51 56 59 58 62 62 57 53 51 34 31 34 33 19 30 35 38 37 45 39 47 41 48 53 49 46 61 54 59 48 78 75 81 78 68 80 81 75 72 68 62 67
41 29 41 40 45 50 49 46 33 37 43 38 37 28 27 33 34 41 40 41 34 36 37 38 45 58 57 54 59 61 42 65 60 68 78 81 82 82 80 82 86 74 75 73
33 17 38 35 43 38 41 48 46 35 39 34 29 35 45 52 38 33 38 43 45 43 45 43 49 67 69 58 60 61 43 40 69 63 80 78 85 89 80 101 95 100 87 81
12 20 42 50 49 51 47 37 38 42 27 28 42 56 42 45 22 31 42 44 52 52 55 62 68 64 66 65 61 59 52 38 49 51 69 65 86 91 95 96 110 98 93 86
9 9 16 10 17 32 24 35 22 17 26 34 40 28 25 49 50 58 67 51 37 51 60 59 59 62 67 75 67 60 54 44 53 57 72 81 73 73 105 105 113 104 99 94
23 19 27 21 25 30 12 10 27 49 71 72 34 35 59 53 56 64 55 44 43 53 59 58 58 59 70 73 76 68 58 46 55 53 78 83 90 74 103 103 108 104 95 86
14 11 19 10 28 8 25 47 43 45 59 69 56 60 74 60 67 60 52 50 51 56 54 56 58 61 68 80 76 66 56 48 57 58 77 67 93 103 108 103 103 100 91 82
27 26 37 66 52 58 53 61 66 53 61 65 65 58 62 66 64 59 54 58 69 60 64 58 54 69 72 75 66 68 57 63 73 76 76 57 95 104 104 101 104 106 96 86
39 43 40 61 63 55 66 66 68 63 55 65 66 62 63 65 67 59 68 67 59 58 60 61 48 63 65 65 58 55 56 69 84 76 68 64 81 98 100 104 106 106 94 86
44 45 58 59 69 66 65 70 67 55 51 45 47 52 63 65 63 77 74 75 68 68 64 55 52 56 64 54 53 50 62 71 80 72 76 90 97 103 106 110 110 103 92 87
33 60 55 63 69 80 71 55 57 58 57 55 47 56 57 67 81 79 79 79 78 67 58 51 47 45 42 45 51 64 78 79 80 77 51 93 95 92 87 97 92 80 78 83
50 61 63 65 56 59 59 65 64 46 48 57 57 51 62 75 77 78 80 79 66 55 50 46 42 48 45 42 53 70 78 81 77 53 78 95 99 100 94 82 85 81 76 66
61 61 46 44 70 79 55 46 44 51 48 49 58 67 63 65 77 76 71 61 51 46 44 39 43 44 34 41 64 70 72 82 86 72 82 100 102 101 101 99 94 77 62 61
39 44 54 55 43 35 39 45 50 52 58 64 63 58 55 68 66 60 52 43 38 40 42 42 36 40 40 45 64 72 79 86 86 87 96 103 106 102 97 96 92 89 77 66
47 47 33 37 39 41 45 49 56 61 62 60 59 60 54 47 43 43 37 33 27 25 26 23 24 30 31 44 72 73 73 79 81 94 100 103 101 96 98 104 101 89 81 78
32 35 35 36 38 44 48 49 49 50 56 53 52 44 37 35 32 26 22 17 9 5 9 10 21 27 36 51 59 67 72 83 82 81 90 93 94 97 103 105 102 96 92 91
18 21 23 26 35 40 47 48 46 46 46 42 35 28 26 23 16 29 26 25 28 23 22 11 14 24 54 50 54 54 62 69 74 78 82 88 94 95 98 103 100 101 98 92
15 18 22 26 29 34 43 51 49 43 40 33 30 30 24 21 25 33 39 35 37 38 34 25 12 28 51 57 51 48 54 64 66 67 73 80 86 91 93 100 99 101 93 85
15 18 19 22 28 35 41 48 57 55 50 41 39 40 47 49 47 52 57 57 49 41 30 23 16 24 30 37 49 59 60 61 65 66 72 81 89 86 88 93 98 88 86 83
15 18 18 22 29 35 39 40 49 58 60 54 51 51 51 56 63 61 65 66 58 48 38 30 24 21 23 27 39 52 59 70 71 69 77 82 86 83 85 94 92 87 84 81
15 21 19 21 26 33 41 45 42 47 54 60 60 62 63 62 60 61 62 61 53 48 52 45 36 22 14 12 23 40 53 62 68 76 84 90 92 95 85 83 83 85 84 76
10 14 16 25 27 32 39 45 46 46 48 54 61 63 66 64 61 59 63 60 57 57 51 48 40 28 18 12 25 38 44 48 61 74 77 77 86 86 79 74 72 75 77 69
12 7 4 3 14 22 31 36 42 45 47 48 48 54 61 64 62 62 55 46 52 57 60 49 42 34 21 31 38 41 41 48 55 66 70 79 76 73 71 65 59 74 72 76
16 19 20 15 17 18 19 26 36 40 42 46 48 46 48 54 61 60 55 50 49 53 55 54 56 41 41 42 38 41 47 48 56 64 64 67 68 61 58 59 69 65 71 67
18 20 21 23 24 25 24 24 30 32 35 42 48 44 45 46 46 47 52 58 58 52 55 56 54 59 53 46 45 46 43 41 50 53 56 60 56 52 56 61 61 69 68 69
17 15 21 23 24 26 27 32 33 32 31 33 36 41 48 47 46 49 46 45 52 57 57 54 53 52 51 49 45 40 36 36 33 34 37 42 45 49 53 59 62 64 64 60
Wind_Direction_850mb
265 269 270 277 286 287 290 287 279 285 279 285 302 312 323 327 322 302 306 294 314 300 295 294 299 295 297 277 282 292 296 221 205 210 206 208 206 198 197 197 198 205 206 199
268 274 277 279 281 286 277 272 270 275 278 294 323 329 293 327 329 327 313 302 293 302 305 285 289 288 301 296 278 296 316 283 219 206 206 209 202 206 205 207 206 214 207 197
272 280 290 279 274 274 276 289 292 298 296 316 308 303 335 322 312 303 309 306 290 293 286 288 280 279 275 287 286 291 304 233 219 213 211 210 205 206 210 204 204 205 199 192
269 292 263 270 265 280 295 285 286 312 315 304 329 333 322 314 325 341 324 309 298 295 290 285 284 281 278 268 288 283 286 222 234 219 210 213 209 209 206 208 207 207 197 194
239 237 270 279 277 281 283 305 308 300 311 339 330 317 306 298 351 312 304 303 296 291 290 292 286 273 274 268 278 274 277 249 234 228 225 206 202 204 197 195 201 202 194 191
188 221 260 306 298 319 333 279 301 309 309 310 294 292 297 322 320 319 308 297 291 293 291 282 278 268 273 269 269 268 265 241 232 222 216 203 198 204 202 207 205 193 182 189
254 258 268 310 356 3 279 313 333 318 308 298 306 307 305 308 315 306 299 299 301 297 292 281 278 268 267 265 269 266 253 244 224 216 215 213 191 193 187 189 186 182 183 187
261 269 269 36 305 283 261 273 294 290 304 309 309 305 307 309 303 300 310 305 300 297 288 280 272 269 267 266 261 263 257 234 221 206 205 197 191 187 184 183 178 176 183 176
281 287 312 309 301 312 319 315 316 328 318 304 295 295 296 302 302 311 305 302 295 287 288 287 269 254 264 258 265 260 252 219 215 198 201 189 193 177 175 177 173 178 180 172
314 303 302 306 309 326 324 320 305 313 318 301 296 307 303 305 304 302 299 298 292 287 284 283 265 255 259 262 264 256 214 205 193 197 194 201 204 189 181 175 178 181 181 176
290 297 312 315 317 318 312 319 312 317 311 298 310 306 302 300 299 303 300 298 295 286 284 279 270 258 243 249 255 220 202 196 187 183 188 189 181 181 182 183 191 185 183 180
297 308 304 301 309 310 309 310 303 318 313 305 303 303 302 297 304 304 301 300 298 291 285 280 271 259 251 263 229 201 182 185 182 179 189 184 183 177 178 181 188 186 176 171
305 308 307 307 312 325 319 312 306 311 309 312 311 306 304 308 309 303 298 298 295 291 294 284 262 254 271 223 215 205 190 192 186 179 187 181 179 177 170 172 178 179 171 170
298 306 306 306 310 310 311 304 314 312 314 312 309 311 316 310 308 306 304 302 295 289 283 282 261 251 237 222 202 199 198 194 189 182 193 185 180 177 172 169 166 165 165 165
316 316 302 308 318 329 330 326 323 320 321 320 320 317 310 306 308 308 321 313 292 281 275 262 258 234 224 213 202 197 192 187 190 186 185 182 180 176 174 168 167 166 166 167
313 317 338 340 339 333 331 331 329 327 326 322 317 316 317 318 315 314 310 306 291 280 267 260 215 214 219 208 196 194 195 192 190 184 181 178 179 179 177 176 177 171 171 169
324 340 346 337 336 338 337 334 333 331 323 323 322 328 327 335 330 333 336 8 16 298 236 249 242 225 225 204 201 186 188 192 192 187 181 182 178 181 185 187 180 177 172 172
353 348 348 343 343 347 353 353 350 345 341 343 343 349 352 4 359 16 40 52 75 89 88 109 175 203 195 196 196 193 187 185 189 188 185 181 180 179 182 180 178 176 170 167
12 359 2 8 14 17 17 16 15 13 15 19 30 34 34 39 51 56 57 64 53 60 56 67 129 195 183 193 187 195 188 189 188 187 184 180 177 180 179 177 178 177 169 168
24 14 21 25 19 17 19 24 31 33 35 45 58 61 59 57 54 59 61 55 46 40 45 54 91 160 179 197 197 191 187 184 186 186 183 180 176 177 173 178 177 175 173 173
35 17 17 15 20 24 26 26 32 36 41 49 54 53 55 58 59 55 54 52 47 46 50 62 74 101 144 177 182 182 183 180 181 182 181 178 175 171 175 178 176 175 172 171
25 18 20 22 29 34 34 33 37 41 45 46 51 57 61 64 63 60 56 52 45 46 47 48 53 61 81 128 163 169 172 176 177 174 172 171 167 166 169 171 173 172 175 172
57 18 20 28 27 27 25 30 34 38 42 46 48 52 57 56 60 62 58 54 50 49 51 48 48 53 69 118 159 165 167 168 165 167 164 158 165 168 164 168 174 179 170 168
24 356 332 360 48 21 19 20 29 36 46 50 49 50 55 59 60 63 64 64 62 59 58 56 56 66 98 120 133 145 154 156 159 158 159 155 153 154 160 169 168 164 167 166
30 32 36 36 33 25 34 28 29 31 36 45 46 50 55 58 58 58 61 66 68 66 64 67 68 79 89 104 117 117 125 132 141 145 142 147 153 159 159 156 155 160 159 160
46 50 49 49 45 41 40 36 39 33 29 38 39 42 50 56 62 64 63 64 66 69 69 66 77 77 78 90 96 107 103 106 127 134 140 146 150 147 146 154 157 155 158 160
45 35 56 56 51 48 52 54 53 50 45 44 45 35 39 54 60 61 63 65 66 67 68 71 75 80 80 81 83 84 91 114 122 143 146 149 157 159 161 165 166 168 165 166